Regional Weather Roundup
Issued by NWS Memphis, TN

Home | Current Version | Previous Version | Text Only | Print | Product List | Glossary On
Versions: 1 2 3 4 5 6 7 8 9 10 11 12 13 14 15 16 17 18 19 20 21 22 23 24 25 26 27 28 29 30 31 32 33 34 35 36 37 38 39 40 41 42 43 44 45 46 47 48 49 50
000
ASUS44 KMEG 230710
RWRMEG
MEMPHIS CWA HOURLY WEATHER ROUNDUP
NATIONAL WEATHER SERVICE MEMPHIS TN
200 AM CDT WED APR 23 2014

...WEST TENNESSEE...

CITY           SKY/WX    TMP DP  RH WIND       PRES   REMARKS
MEMPHIS INTL   CLEAR     59  41  51 NE6       29.97R
NWS MEMPHIS      N/A     57 N/A N/A MISG        N/A
JACKSON        CLEAR     51  38  60 CALM      29.97S
LEXINGTON      CLEAR     52  39  62 CALM      29.95S
SAVANNAH       CLEAR     48  46  93 CALM      29.96F
DYERSBURG      CLEAR     52  36  54 CALM      29.99S
UNION CITY     CLEAR     52  39  62 N5        29.97S
PARIS          CLEAR     45  37  73 NE3       29.97S


...EASTERN ARKANSAS...

CITY           SKY/WX    TMP DP  RH WIND       PRES   REMARKS
JONESBORO      CLEAR     54  42  64 NE7       29.99R
WEST MEMPHIS   CLEAR     53  45  74 NE3       29.96S
BATESVILLE     CLEAR     52  43  71 CALM      30.00S
NEWPORT        CLEAR     56  46  69 NE6       30.01R
WALNUT RIDGE   CLEAR     54  39  58 NE7       30.00S
BLYTHEVILLE    CLEAR     50  44  80 NW3       29.99R
SEARCY         CLEAR     53  43  69 N5        29.99R
STUTTGART      CLEAR     57  50  77 NW5       29.96F
PINE BLUFF     CLEAR     55  51  86 CALM      29.96F
MONTICELLO     CLEAR     53  51  93 CALM      29.95F


...NORTH MISSISSIPPI...

CITY           SKY/WX    TMP DP  RH WIND       PRES   REMARKS
TUPELO         CLEAR     56  45  66 N7        29.94S
OXFORD         CLEAR     48  45  87 CALM      29.98R
OLIVE BRANCH   CLEAR     54  45  71 NE5       29.97S
TUNICA         CLEAR     52  46  82 N3        29.97S
CLARKSDALE       N/A     54  50  87 CALM      29.96F
CORINTH        CLEAR     50  45  81 NW5       29.96S
GRENADA        CLEAR     52  50  93 CALM      29.96S
GREENWOOD      CLEAR     55  54  96 NE3       29.95S FOG
COLUMBUS       CLEAR     59  54  81 W3        29.93S
STARKVILLE     FAIR      57  54  88 CALM      29.94S
GOLDEN TRIANGL CLOUDY    59  54  82 NW5       29.96S


...SOUTHEAST MISSOURI...

CITY           SKY/WX    TMP DP  RH WIND       PRES   REMARKS
DONIPHAN         N/A     47  38  72 CALM        N/A
WEST PLAINS    CLEAR     45  33  63 CALM      30.03R
POPLAR BLUFF   CLEAR     50  43  77 CALM      30.00R
CAPE GIRARDEAU CLEAR     45  40  82 W5        30.00S


...NORTHWEST ALABAMA...

CITY           SKY/WX    TMP DP  RH WIND       PRES   REMARKS
MUSCLE SHOALS  CLEAR     60  45  57 N3        29.96R


...MIDDLE TENNESSEE...

CITY           SKY/WX    TMP DP  RH WIND       PRES   REMARKS
NASHVILLE      CLEAR     55  39  54 N5        29.96S
CLARKSVILLE    CLEAR     47  39  74 N3        29.97S
DICKSON        CLEAR     52  36  54 N5        29.96F
COLUMBIA       CLEAR     48  46  93 CALM      29.94F
LEWISBURG      CLEAR     45  43  93 CALM      29.95F


...WESTERN KENTUCKY...

CITY           SKY/WX    TMP DP  RH WIND       PRES   REMARKS
PADUCAH        CLEAR     54  39  57 CALM      29.98S
FORT CAMPBELL  CLEAR     49  40  71 N3        29.97S


...CENTRAL ARKANSAS...

CITY           SKY/WX    TMP DP  RH WIND       PRES   REMARKS
LITTLE ROCK    CLEAR     56  50  80 CALM      29.97F


SKY/WX REPORTED AS FAIR MEANS FEW OR NO CLOUDS BELOW
12 THOUSAND FEET.




USA.gov is the U.S. government's official web portal to all federal, state and local government web resources and services.